Year,Month,Day,Hour,Minute,Value (Times are PST for temperature in C)
2018,04,16,10,02,7.20
2018,04,16,10,03,7.20
2018,04,16,10,04,7.20
2018,04,16,10,05,7.20
2018,04,16,10,06,7.20
2018,04,16,10,07,7.20
2018,04,16,10,08,7.20
2018,04,16,10,09,7.20
2018,04,16,10,10,7.20
2018,04,16,10,11,7.20
2018,04,16,10,12,7.20
2018,04,16,10,13,7.20
2018,04,16,10,14,7.20
2018,04,16,10,15,7.30
2018,04,16,10,16,7.30
2018,04,16,10,17,7.30
2018,04,16,10,18,7.30
2018,04,16,10,19,7.30
2018,04,16,10,20,7.30
2018,04,16,10,21,7.30
2018,04,16,10,22,7.30
2018,04,16,10,23,7.30
2018,04,16,10,24,7.30
2018,04,16,10,25,7.30
2018,04,16,10,26,7.30
2018,04,16,10,27,7.30
2018,04,16,10,28,7.30
2018,04,16,10,29,7.30
2018,04,16,10,30,7.30
2018,04,16,10,31,7.40
2018,04,16,10,32,7.40
2018,04,16,10,33,7.40
2018,04,16,10,34,7.40
2018,04,16,10,35,7.50
2018,04,16,10,36,7.50
2018,04,16,10,37,7.50
2018,04,16,10,38,7.50
2018,04,16,10,39,7.50
2018,04,16,10,40,7.50
2018,04,16,10,41,7.50
2018,04,16,10,42,7.50
2018,04,16,10,43,7.40
2018,04,16,10,44,7.40
2018,04,16,10,45,7.30
2018,04,16,10,46,7.30
2018,04,16,10,47,7.30
2018,04,16,10,48,7.30
2018,04,16,10,49,7.30
2018,04,16,10,50,7.30
2018,04,16,10,51,7.30
2018,04,16,10,52,7.30
2018,04,16,10,53,7.30
2018,04,16,10,54,7.30
2018,04,16,10,55,7.30
2018,04,16,10,56,7.30
2018,04,16,10,57,7.30
2018,04,16,10,58,7.30
2018,04,16,10,59,7.30
2018,04,16,11,00,7.30
2018,04,16,11,01,7.30
2018,04,16,11,02,7.30
2018,04,16,11,03,7.30
2018,04,16,11,04,7.30
2018,04,16,11,05,7.30
2018,04,16,11,06,7.30
2018,04,16,11,07,7.30
2018,04,16,11,08,7.30
2018,04,16,11,09,7.30
2018,04,16,11,10,7.30
2018,04,16,11,11,7.30
2018,04,16,11,12,7.40
2018,04,16,11,13,7.40
2018,04,16,11,14,7.40
2018,04,16,11,15,7.40
2018,04,16,11,16,7.40
2018,04,16,11,17,7.50
2018,04,16,11,18,7.50
2018,04,16,11,19,7.50
2018,04,16,11,20,7.50
2018,04,16,11,21,7.50
2018,04,16,11,22,7.60
2018,04,16,11,23,7.60
2018,04,16,11,24,7.60
2018,04,16,11,25,7.60
2018,04,16,11,26,7.60
2018,04,16,11,27,7.60
2018,04,16,11,28,7.60
2018,04,16,11,29,7.60
2018,04,16,11,30,7.60
2018,04,16,11,31,7.60
2018,04,16,11,32,7.60
2018,04,16,11,33,7.60
2018,04,16,11,34,7.60
2018,04,16,11,35,7.60
2018,04,16,11,36,7.60
2018,04,16,11,37,7.70
2018,04,16,11,38,7.70
2018,04,16,11,39,7.70
2018,04,16,11,40,7.70
2018,04,16,11,41,7.70
2018,04,16,11,42,7.80
2018,04,16,11,43,7.80
2018,04,16,11,44,7.80
2018,04,16,11,45,7.80
2018,04,16,11,46,7.80
2018,04,16,11,47,7.80
2018,04,16,11,48,7.80
2018,04,16,11,49,7.80
2018,04,16,11,50,7.80
2018,04,16,11,51,7.80
2018,04,16,11,52,7.90
2018,04,16,11,53,7.90
2018,04,16,11,54,7.90
2018,04,16,11,55,7.90
2018,04,16,11,56,7.90
2018,04,16,11,57,7.90
2018,04,16,11,58,7.90
2018,04,16,11,59,7.90
2018,04,16,12,00,8.00
2018,04,16,12,01,7.90
2018,04,16,12,02,7.90
2018,04,16,12,03,7.90
2018,04,16,12,04,8.00
2018,04,16,12,05,8.00
2018,04,16,12,06,8.00
2018,04,16,12,07,8.00
2018,04,16,12,08,8.00
2018,04,16,12,09,8.00
2018,04,16,12,10,8.00
2018,04,16,12,11,8.10
2018,04,16,12,12,8.10
2018,04,16,12,13,8.10
2018,04,16,12,14,8.10
2018,04,16,12,15,8.10
2018,04,16,12,16,8.10
2018,04,16,12,17,8.10
2018,04,16,12,18,8.10
2018,04,16,12,19,8.10
2018,04,16,12,20,8.10
2018,04,16,12,21,8.10
2018,04,16,12,22,8.10
2018,04,16,12,23,8.10
2018,04,16,12,24,8.10
2018,04,16,12,25,8.10
2018,04,16,12,26,8.10
2018,04,16,12,27,8.10
2018,04,16,12,28,8.10
2018,04,16,12,29,8.10
2018,04,16,12,30,8.10
2018,04,16,12,31,8.10
2018,04,16,12,32,8.20
2018,04,16,12,33,8.20
2018,04,16,12,34,8.20
2018,04,16,12,35,8.20
2018,04,16,12,36,8.20
2018,04,16,12,37,8.20
2018,04,16,12,38,8.20
2018,04,16,12,39,8.20
2018,04,16,12,40,8.20
2018,04,16,12,41,8.20
2018,04,16,12,42,8.20
2018,04,16,12,43,8.20
2018,04,16,12,44,8.20
2018,04,16,12,45,8.20
2018,04,16,12,46,8.20
2018,04,16,12,47,8.20
2018,04,16,12,48,8.20
2018,04,16,12,49,8.10
2018,04,16,12,50,8.10
2018,04,16,12,51,8.10
2018,04,16,12,52,8.10
2018,04,16,12,53,8.10
2018,04,16,12,54,8.10
2018,04,16,12,55,8.10
2018,04,16,12,56,8.10
2018,04,16,12,57,8.20
2018,04,16,12,58,8.20
2018,04,16,12,59,8.20
2018,04,16,13,00,8.20
2018,04,16,13,01,8.20
2018,04,16,13,02,8.20
2018,04,16,13,03,8.20
2018,04,16,13,04,8.20
2018,04,16,13,05,8.20
2018,04,16,13,06,8.20
2018,04,16,13,07,8.20
2018,04,16,13,08,8.20
2018,04,16,13,09,8.20
2018,04,16,13,10,8.20
2018,04,16,13,11,8.20
2018,04,16,13,12,8.20
2018,04,16,13,13,8.20
2018,04,16,13,14,8.20
2018,04,16,13,15,8.20
2018,04,16,13,16,8.20
2018,04,16,13,17,8.20
2018,04,16,13,18,8.20
2018,04,16,13,19,8.20
2018,04,16,13,20,8.20
2018,04,16,13,21,8.20
2018,04,16,13,22,8.20
2018,04,16,13,23,8.20
2018,04,16,13,24,8.20
2018,04,16,13,25,8.20
2018,04,16,13,26,8.20
2018,04,16,13,27,8.20
2018,04,16,13,28,8.20
2018,04,16,13,29,8.20
2018,04,16,13,30,8.20
2018,04,16,13,31,8.20
2018,04,16,13,32,8.20
2018,04,16,13,33,8.20
2018,04,16,13,34,8.20
2018,04,16,13,35,8.20
2018,04,16,13,36,8.20
2018,04,16,13,37,8.20
2018,04,16,13,38,8.20
2018,04,16,13,39,8.20
2018,04,16,13,40,8.20
2018,04,16,13,41,8.20
2018,04,16,13,42,8.20
2018,04,16,13,43,8.20
2018,04,16,13,44,8.20
2018,04,16,13,45,8.20
2018,04,16,13,46,8.20
2018,04,16,13,47,8.20
2018,04,16,13,48,8.20
2018,04,16,13,49,8.20
2018,04,16,13,50,8.20
2018,04,16,13,51,8.20
2018,04,16,13,52,8.20
2018,04,16,13,53,8.20
2018,04,16,13,54,8.30
2018,04,16,13,55,8.30
2018,04,16,13,56,8.30
2018,04,16,13,57,8.30
2018,04,16,13,58,8.30
2018,04,16,13,59,8.30
2018,04,16,14,00,8.30
2018,04,16,14,01,8.30
2018,04,16,14,02,8.30
2018,04,16,14,03,8.30
2018,04,16,14,04,8.30
2018,04,16,14,05,8.30
2018,04,16,14,06,8.40
2018,04,16,14,07,8.40
2018,04,16,14,08,8.40
2018,04,16,14,09,8.40
2018,04,16,14,10,8.30
2018,04,16,14,11,8.30
2018,04,16,14,12,8.20
2018,04,16,14,13,8.20
2018,04,16,14,14,8.20
2018,04,16,14,15,8.20
2018,04,16,14,16,8.30
2018,04,16,14,17,8.30
2018,04,16,14,18,8.30
2018,04,16,14,19,8.30
2018,04,16,14,20,8.30
2018,04,16,14,21,8.30
2018,04,16,14,22,8.30
2018,04,16,14,23,8.30
2018,04,16,14,24,8.30
2018,04,16,14,25,8.30
2018,04,16,14,26,8.20
2018,04,16,14,27,8.20
2018,04,16,14,28,8.20
2018,04,16,14,29,8.20
2018,04,16,14,30,8.10
2018,04,16,14,31,8.10
2018,04,16,14,32,8.10
2018,04,16,14,33,8.10
2018,04,16,14,34,8.10
2018,04,16,14,35,8.10
2018,04,16,14,36,8.10
2018,04,16,14,37,8.10
2018,04,16,14,38,8.20
2018,04,16,14,39,8.20
2018,04,16,14,40,8.20
2018,04,16,14,41,8.20
2018,04,16,14,42,8.20
2018,04,16,14,43,8.20
2018,04,16,14,44,8.20
2018,04,16,14,45,8.20
2018,04,16,14,46,8.20
2018,04,16,14,47,8.20
2018,04,16,14,48,8.10
2018,04,16,14,49,8.10
2018,04,16,14,50,8.00
2018,04,16,14,51,8.00
2018,04,16,14,52,7.90
2018,04,16,14,53,7.90
2018,04,16,14,54,8.00
2018,04,16,14,55,7.90
2018,04,16,14,56,7.90
2018,04,16,14,57,7.90
2018,04,16,14,58,7.90
2018,04,16,14,59,7.80
2018,04,16,15,00,7.80
2018,04,16,15,01,7.80
2018,04,16,15,02,7.80
2018,04,16,15,03,7.80
2018,04,16,15,04,7.80
2018,04,16,15,05,7.80
2018,04,16,15,06,7.80
2018,04,16,15,07,7.80
2018,04,16,15,08,7.80
2018,04,16,15,09,7.80
2018,04,16,15,10,7.80
2018,04,16,15,11,7.80
2018,04,16,15,12,7.80
2018,04,16,15,13,7.80
2018,04,16,15,14,7.80
2018,04,16,15,15,7.80
2018,04,16,15,16,7.80
2018,04,16,15,17,7.80
2018,04,16,15,18,7.80
2018,04,16,15,19,7.90
2018,04,16,15,20,7.90
2018,04,16,15,21,7.90
2018,04,16,15,22,7.80
2018,04,16,15,23,7.80
2018,04,16,15,24,7.80
2018,04,16,15,25,7.80
2018,04,16,15,26,7.80
2018,04,16,15,27,7.80
2018,04,16,15,28,7.70
2018,04,16,15,29,7.70
2018,04,16,15,30,7.70
2018,04,16,15,31,7.70
2018,04,16,15,32,7.70
2018,04,16,15,33,7.70
2018,04,16,15,34,7.70
2018,04,16,15,35,7.80
2018,04,16,15,36,7.80
2018,04,16,15,37,7.80
2018,04,16,15,38,7.80
2018,04,16,15,39,7.80
2018,04,16,15,40,7.80
2018,04,16,15,41,7.80
2018,04,16,15,42,7.80
2018,04,16,15,43,7.80
2018,04,16,15,44,7.90
2018,04,16,15,45,7.90
2018,04,16,15,46,7.90
2018,04,16,15,47,7.90
2018,04,16,15,48,8.00
2018,04,16,15,49,8.00
2018,04,16,15,50,8.00
2018,04,16,15,51,8.10
2018,04,16,15,52,8.00
2018,04,16,15,53,8.00
2018,04,16,15,54,8.00
2018,04,16,15,55,8.10
2018,04,16,15,56,8.10
2018,04,16,15,57,8.10
2018,04,16,15,58,8.00
2018,04,16,15,59,7.90
2018,04,16,16,00,7.90
2018,04,16,16,01,7.90
2018,04,16,16,02,7.90
2018,04,16,16,03,7.90
2018,04,16,16,04,7.90
2018,04,16,16,05,7.90
2018,04,16,16,06,7.90
2018,04,16,16,07,7.90
2018,04,16,16,08,7.90
2018,04,16,16,09,7.90
2018,04,16,16,10,7.90
2018,04,16,16,11,7.90
2018,04,16,16,12,7.90
2018,04,16,16,13,7.90
2018,04,16,16,14,8.00
2018,04,16,16,15,7.90
2018,04,16,16,16,7.90
2018,04,16,16,17,7.90
2018,04,16,16,18,7.90
2018,04,16,16,19,7.90
2018,04,16,16,20,7.80
2018,04,16,16,21,7.90
2018,04,16,16,22,7.90
2018,04,16,16,23,8.00
2018,04,16,16,24,8.10
2018,04,16,16,25,8.00
2018,04,16,16,26,8.00
2018,04,16,16,27,8.10
2018,04,16,16,28,8.10
2018,04,16,16,29,8.10
2018,04,16,16,30,8.10
2018,04,16,16,31,8.10
2018,04,16,16,32,8.10
2018,04,16,16,33,8.10
2018,04,16,16,34,8.00
2018,04,16,16,35,8.00
2018,04,16,16,36,8.00
2018,04,16,16,37,8.00
2018,04,16,16,38,8.00
2018,04,16,16,39,8.00
2018,04,16,16,40,8.00
2018,04,16,16,41,8.00
2018,04,16,16,42,8.00
2018,04,16,16,43,8.00
2018,04,16,16,44,8.00
2018,04,16,16,45,8.00
2018,04,16,16,46,8.00
2018,04,16,16,47,7.90
2018,04,16,16,48,7.90
2018,04,16,16,49,7.90
2018,04,16,16,50,7.90
2018,04,16,16,51,7.90
2018,04,16,16,52,7.80
2018,04,16,16,53,7.80
2018,04,16,16,54,7.80
2018,04,16,16,55,7.80
2018,04,16,16,56,7.90
2018,04,16,16,57,7.90
2018,04,16,16,58,8.00
2018,04,16,16,59,7.90
2018,04,16,17,00,7.90
2018,04,16,17,01,8.00
2018,04,16,17,02,8.00
2018,04,16,17,03,8.00
2018,04,16,17,04,8.10
2018,04,16,17,05,8.10
2018,04,16,17,06,8.10
2018,04,16,17,07,8.10
2018,04,16,17,08,8.10
2018,04,16,17,09,8.10
2018,04,16,17,10,8.10
2018,04,16,17,11,8.10
2018,04,16,17,12,8.10
2018,04,16,17,13,8.10
2018,04,16,17,14,8.10
2018,04,16,17,15,8.00
2018,04,16,17,16,8.00
2018,04,16,17,17,8.00
2018,04,16,17,18,8.00
2018,04,16,17,19,8.00
2018,04,16,17,20,8.00
2018,04,16,17,21,8.00
2018,04,16,17,22,8.00
2018,04,16,17,23,7.90
2018,04,16,17,24,7.90
2018,04,16,17,25,7.90
2018,04,16,17,26,7.90
2018,04,16,17,27,7.90
2018,04,16,17,28,8.00
2018,04,16,17,29,7.90
2018,04,16,17,30,7.90
2018,04,16,17,31,7.90
2018,04,16,17,32,7.80
2018,04,16,17,33,7.80
2018,04,16,17,34,7.80
2018,04,16,17,35,7.80
2018,04,16,17,36,7.80
2018,04,16,17,37,7.80
2018,04,16,17,38,7.80
2018,04,16,17,39,7.70
2018,04,16,17,40,7.70
2018,04,16,17,41,7.70
2018,04,16,17,42,7.70
2018,04,16,17,43,7.70
2018,04,16,17,44,7.70
2018,04,16,17,45,7.70
2018,04,16,17,46,7.60
2018,04,16,17,47,7.60
2018,04,16,17,48,7.60
2018,04,16,17,49,7.70
2018,04,16,17,50,7.70
2018,04,16,17,51,7.60
2018,04,16,17,52,7.60
2018,04,16,17,53,7.60
2018,04,16,17,54,7.60
2018,04,16,17,55,7.60
2018,04,16,17,56,7.60
2018,04,16,17,57,7.70
2018,04,16,17,58,7.70
2018,04,16,17,59,7.70
2018,04,16,18,00,7.70
2018,04,16,18,01,7.80
2018,04,16,18,02,7.80
2018,04,16,18,03,7.80
2018,04,16,18,04,7.80
2018,04,16,18,05,7.80
2018,04,16,18,06,7.80
2018,04,16,18,07,7.80
2018,04,16,18,08,7.80
2018,04,16,18,09,7.80
2018,04,16,18,10,7.70
2018,04,16,18,11,7.70
2018,04,16,18,12,7.70
2018,04,16,18,13,7.70
2018,04,16,18,14,7.70
2018,04,16,18,15,7.70
2018,04,16,18,16,7.70
2018,04,16,18,17,7.70
2018,04,16,18,18,7.70
2018,04,16,18,19,7.70
2018,04,16,18,20,7.70
2018,04,16,18,21,7.70
2018,04,16,18,22,7.70
2018,04,16,18,23,7.70
2018,04,16,18,24,7.70
2018,04,16,18,25,7.70
2018,04,16,18,26,7.70
2018,04,16,18,27,7.70
2018,04,16,18,28,7.80
2018,04,16,18,29,7.80
2018,04,16,18,30,7.80
2018,04,16,18,31,7.80
2018,04,16,18,32,7.80
2018,04,16,18,33,7.80
2018,04,16,18,34,7.80
2018,04,16,18,35,7.80
2018,04,16,18,36,7.80
2018,04,16,18,37,7.80
2018,04,16,18,38,7.80
2018,04,16,18,39,7.80
2018,04,16,18,40,7.80
2018,04,16,18,41,7.90
2018,04,16,18,42,7.90
2018,04,16,18,43,7.90
2018,04,16,18,44,7.90
2018,04,16,18,45,7.90
2018,04,16,18,46,7.90
2018,04,16,18,47,7.90
2018,04,16,18,48,7.90
2018,04,16,18,49,7.90
2018,04,16,18,50,7.90
2018,04,16,18,51,7.90
2018,04,16,18,52,7.90
2018,04,16,18,53,7.90
2018,04,16,18,54,7.90
2018,04,16,18,55,7.90
2018,04,16,18,56,7.90
2018,04,16,18,57,8.00
2018,04,16,18,58,8.00
2018,04,16,18,59,8.00
2018,04,16,19,00,8.00
2018,04,16,19,01,8.00
2018,04,16,19,02,8.00
2018,04,16,19,03,8.00
2018,04,16,19,04,8.00
2018,04,16,19,05,8.00
2018,04,16,19,06,8.00
2018,04,16,19,07,8.00
2018,04,16,19,08,8.00
2018,04,16,19,09,8.00
2018,04,16,19,10,8.00
2018,04,16,19,11,8.00
2018,04,16,19,12,8.00
